Simultaneous Nadir Overpasses (SNOs) Predictions

Prediction of SNOs between GOES-16 and AQUA Satellite Orbit:

Table of predicted SNOs for the next 14.0 days since TLE Epoch: 3/21/2025
Index Date Time (GOES-16) GOES-16 Lat,Lon AQUA Lat,Lon Distance(km) Time Diff (sec)
1 03/24/2025 07:38:41 -0.05, -75.50 -0.02, -75.72 25.33 80
2 03/26/2025 19:38:22 0.04, -75.54 0.01, -75.58 5.81 80
3 03/29/2025 07:35:14 -0.04, -75.63 -0.11, -75.41 25.22 80
4 03/31/2025 19:37:30 0.04, -75.68 0.12, -75.25 48.63 80
5 04/01/2025 07:56:47 -0.03, -75.72 0.88, -79.91 477.29 80
6 04/03/2025 07:34:16 -0.04, -75.78 -0.18, -75.05 81.98 80
7 04/03/2025 19:53:40 0.03, -75.77 -0.80, -79.75 452.40 80
